This demonstration page uses our WeatherBlox Daily Observations layout. Learn more.

Left ArrowRight Arrow

Hourly Observations for July 21, 2022

Temp ( °F °C ) Dew Point ( °F °C ) Humidity (%) Winds ( mph kmh ) Pressure ( in mb ) Visibility ( mi km ) Precip ( " mm )
12:59 am 00:59 Mostly Clear 79 26.1 72 22.2 79 79 SSW 10 17 29.79 1009 10 16 0.00 0.00
1:59 am 01:59 Mostly Clear 80 26.7 72 22.2 76 76 SSW 12 19 29.78 1009 10 16 0.00 0.00
2:59 am 02:59 Mostly Clear 78 25.6 73 22.8 85 85 SSW 9 15 29.78 1009 10 16 0.00 0.00
3:59 am 03:59 Mostly Clear 78 25.6 72 22.2 82 82 SSW 10 17 29.78 1008 10 16 0.00 0.00
4:59 am 04:59 Mostly Clear 78 25.6 72 22.2 82 82 SSW 10 17 29.78 1008 10 16 0.00 0.00
5:59 am 05:59 Mostly Clear 77 25 72 22.2 85 85 SSW 12 19 29.78 1009 10 16 0.00 0.00
6:59 am 06:59 Mostly Sunny 77 25 72 22.2 85 85 SSW 10 17 29.79 1009 9 14 0.00 0.00
7:59 am 07:59 Mostly Cloudy 81 27.2 74 23.3 79 79 SW 12 19 29.79 1009 9 14 0.00 0.00
8:59 am 08:59 Mostly Cloudy 81 27.2 74 23.3 79 79 SW 10 17 29.80 1009 9 14 0.00 0.00
9:59 am 09:59 Mostly Cloudy 84 28.9 74 23.3 72 72 SW 13 20 29.80 1009 9 14 0.00 0.00
10:59 am 10:59 Mostly Cloudy 86 30 75 23.9 70 70 SW 13 20 29.80 1009 10 16 0.00 0.00
11:59 am 11:59 Mostly Cloudy 86 30 75 23.9 70 70 SW 10 17 29.81 1009 10 16 0.00 0.00
12:59 pm 12:59 Partly Cloudy N/A N/A N/A SW 13 20 29.81 1010 10 16 0.00 0.00
1:59 pm 13:59 Mostly Cloudy 90 32.2 76 24.4 63 63 SW 12 19 29.80 1009 10 16 0.00 0.00
2:59 pm 14:59 Mostly Cloudy 91 32.8 76 24.4 61 61 SW 14 22 29.79 1009 9 14 0.00 0.00
3:59 pm 15:59 Mostly Cloudy 91 32.8 76 24.4 61 61 SSW 17 28 29.76 1008 9 14 0.00 0.00
4:59 pm 16:59 Mostly Cloudy 91 32.8 76 24.4 61 61 SW 10 17 29.80 1009 9 14 0.00 0.00
5:59 pm 17:59 Mostly Cloudy 91 32.8 76 24.4 61 61 WSW 8 13 29.81 1010 9 14 0.00 0.00
6:05 pm 18:05 Mostly Cloudy with Thunderstorms 91 32.8 76 24.4 61 61 NW 28 44 29.83 1010 10 16 0.00 0.00
6:19 pm 18:19 Cloudy 87 30.6 76 24.4 70 70 WNW 29 46 29.83 1010 10 16 0.00 0.00
6:40 pm 18:40 Cloudy with Thunderstorms 82 27.8 76 24.4 82 82 WNW 17 28 29.83 1010 4 6 0.01 0.25
6:57 pm 18:57 Cloudy with Thunderstorms 79 26 70 21 74 74 WSW 9 15 29.83 1010 2 3 0.07 1.78
6:59 pm 18:59 Cloudy with Thunderstorms 79 26.1 70 21.1 74 74 WSW 8 13 29.83 1010 2 2 0.07 1.78
7:01 pm 19:01 Cloudy with Thunderstorms 79 26.1 70 21.1 74 74 W 8 13 29.83 1010 7 11 0.00 0.00
7:33 pm 19:33 Cloudy 79 26.1 70 21.1 74 74 W 9 15 29.83 1010 10 16 0.00 0.00
7:59 pm 19:59 Mostly Cloudy 76 24.4 73 22.8 91 91 SW 6 9 29.83 1010 10 16 0.00 0.00
8:59 pm 20:59 Mostly Cloudy 78 25.6 71 21.7 79 79 SSW 7 11 29.84 1011 10 16 0.00 0.00
9:59 pm 21:59 Mostly Cloudy 77 25 71 21.7 82 82 S 3 6 29.87 1011 10 16 0.00 0.00
10:59 pm 22:59 Mostly Cloudy 76 24.4 71 21.7 85 85 S 5 7 29.88 1012 10 16 0.00 0.00
11:59 pm 23:59 Partly Cloudy 75 23.9 71 21.7 88 88 SSW 6 9 29.88 1012 10 16 0.00 0.00

Powered by AerisWeather